Location: Cortada Guamacho
(10.5667°N, 67.0833°W)
Time: 03:03:10
(UTC+00:00)

Cosmos 2228 Rocket - Pass Details

Date: 05 July 2022
Orbit: 618 x 651 km, 82.5° (Epoch: 14 August)

Event Time Altitude Azimuth Distance (km) Brightness Sun altitude
Rises 08:04:21 0° 359° (N) 2,917 6.9 -28.5°
Reaches altitude 10° 08:06:34 10° 1° (N) 2,015 6.1 -28.0°
Enters shadow 08:10:24 61° 31° (NNE) 723 3.5 -27.2°
